Database contains data from 2013-07-07 to 2026-09-05.
156 measurements (5-min interval)
| Time | Temp °C | Dew °C | Humid % | Wind m/s | Gust m/s | Dir ° | Rain mm | Press. hPa | UV | Solar W/m² |
|---|---|---|---|---|---|---|---|---|---|---|
| 00:00 | 12,3 | 11,2 | 93 | 1,3 | 2,7 | 45 | 0,00 | 994,2 | 0,0 | 0 |
| 00:05 | 12,3 | 11,2 | 93 | 1,3 | 2,7 | 23 | 0,00 | 994,2 | 0,0 | 0 |
| 00:10 | 12,3 | 11,2 | 93 | 1,3 | 2,7 | 45 | 0,00 | 994,2 | 0,0 | 0 |
| 00:15 | 12,3 | 11,2 | 93 | 0,9 | 1,8 | 45 | 0,00 | 994,3 | 0,0 | 0 |
| 00:20 | 12,3 | 11,2 | 93 | 0,9 | 1,8 | 45 | 0,00 | 994,3 | 0,0 | 0 |
| 00:25 | 12,3 | 11,2 | 93 | 0,9 | 1,8 | 45 | 0,00 | 994,3 | 0,0 | 0 |
| 00:30 | 12,3 | 11,2 | 93 | 0,4 | 1,3 | 45 | 0,00 | 994,4 | 0,0 | 0 |
| 00:35 | 12,3 | 11,2 | 93 | 0,4 | 1,8 | 45 | 0,00 | 994,4 | 0,0 | 0 |
| 00:40 | 12,4 | 11,3 | 93 | 0,4 | 1,8 | 45 | 0,00 | 994,4 | 0,0 | 0 |
| 00:45 | 12,4 | 11,3 | 93 | 1,8 | 4,0 | 158 | 0,00 | 994,6 | 0,0 | 0 |
| 00:50 | 12,4 | 11,3 | 93 | 1,8 | 3,1 | 158 | 0,00 | 994,6 | 0,0 | 0 |
| 00:55 | 12,3 | 11,2 | 93 | 1,3 | 3,1 | 158 | 0,00 | 994,6 | 0,0 | 0 |
| 01:00 | 12,2 | 11,1 | 93 | 1,3 | 3,6 | 135 | 0,00 | 994,6 | 0,0 | 0 |
| 01:05 | 12,2 | 11,1 | 93 | 1,8 | 3,1 | 135 | 0,25 | 994,6 | 0,0 | 0 |
| 01:10 | 12,1 | 11,0 | 93 | 0,9 | 2,2 | 135 | 0,25 | 994,6 | 0,0 | 0 |
| 01:15 | 12,0 | 10,9 | 93 | 0,9 | 1,8 | 135 | 0,25 | 994,5 | 0,0 | 0 |
| 01:20 | 11,9 | 11,0 | 94 | 0,4 | 1,3 | 135 | 0,51 | 994,5 | 0,0 | 0 |
| 01:25 | 11,9 | 11,0 | 94 | 0,4 | 1,8 | 135 | 0,51 | 994,5 | 0,0 | 0 |
| 01:30 | 11,9 | 11,0 | 94 | 0,0 | 0,0 | – | 0,51 | 994,3 | 0,0 | 0 |
| 01:35 | 11,8 | 10,9 | 94 | 0,0 | 0,4 | – | 0,25 | 994,3 | 0,0 | 0 |
| 01:40 | 11,8 | 10,9 | 94 | 0,4 | 1,3 | 135 | 0,25 | 994,3 | 0,0 | 0 |
| 01:45 | 11,8 | 10,9 | 94 | 0,0 | 0,9 | – | 0,51 | 994,2 | 0,0 | 0 |
| 01:50 | 11,8 | 10,8 | 94 | 0,4 | 1,3 | 135 | 0,25 | 994,2 | 0,0 | 0 |
| 01:55 | 11,8 | 10,8 | 94 | 0,9 | 1,8 | 135 | 0,25 | 994,2 | 0,0 | 0 |
| 02:00 | 11,7 | 10,9 | 95 | 0,9 | 1,8 | 135 | 0,00 | 994,1 | 0,0 | 0 |
| 02:05 | 11,7 | 10,9 | 95 | 0,4 | 1,8 | 135 | 0,00 | 994,1 | 0,0 | 0 |
| 02:10 | 11,7 | 10,9 | 95 | 0,4 | 1,8 | 135 | 0,00 | 994,1 | 0,0 | 0 |
| 02:15 | 11,7 | 10,9 | 95 | 0,9 | 2,2 | 90 | 0,00 | 994,0 | 0,0 | 0 |
| 02:20 | 11,7 | 10,9 | 95 | 0,9 | 3,1 | 68 | 0,25 | 994,0 | 0,0 | 0 |
| 02:25 | 11,7 | 10,9 | 95 | 0,9 | 3,1 | 68 | 0,00 | 994,0 | 0,0 | 0 |
| 02:30 | 11,7 | 10,9 | 95 | 0,4 | 2,2 | 68 | 0,00 | 994,1 | 0,0 | 0 |
| 02:35 | 11,7 | 10,9 | 95 | 0,4 | 1,8 | 68 | 0,00 | 994,1 | 0,0 | 0 |
| 02:40 | 11,6 | 10,8 | 95 | 0,9 | 1,8 | 68 | 0,00 | 994,1 | 0,0 | 0 |
| 02:45 | 11,6 | 10,8 | 95 | 0,4 | 1,3 | 68 | 0,00 | 994,2 | 0,0 | 0 |
| 02:50 | 11,6 | 10,8 | 95 | 0,4 | 1,8 | 68 | 0,00 | 994,2 | 0,0 | 0 |
| 02:55 | 11,6 | 10,8 | 95 | 0,4 | 2,2 | 68 | 0,00 | 994,2 | 0,0 | 0 |
| 03:00 | 11,6 | 10,8 | 95 | 0,4 | 1,3 | 68 | 0,00 | 994,1 | 0,0 | 0 |
| 03:05 | 11,6 | 10,6 | 94 | 0,4 | 2,2 | 68 | 0,00 | 994,1 | 0,0 | 0 |
| 03:10 | 11,6 | 10,6 | 94 | 0,4 | 1,8 | 68 | 0,00 | 994,1 | 0,0 | 0 |
| 03:15 | 11,6 | 10,6 | 94 | 0,4 | 1,8 | 68 | 0,00 | 994,1 | 0,0 | 0 |
| 03:20 | 11,6 | 10,7 | 94 | 0,9 | 3,6 | 90 | 0,00 | 994,1 | 0,0 | 0 |
| 03:25 | 11,6 | 10,7 | 94 | 0,9 | 2,2 | 90 | 0,00 | 994,1 | 0,0 | 0 |
| 03:30 | 11,6 | 10,7 | 94 | 1,3 | 3,6 | 90 | 0,00 | 994,2 | 0,0 | 0 |
| 03:35 | 11,7 | 10,7 | 94 | 0,4 | 2,2 | 90 | 0,25 | 994,2 | 0,0 | 0 |
| 03:40 | 11,7 | 10,7 | 94 | 0,9 | 2,7 | 90 | 0,25 | 994,2 | 0,0 | 0 |
| 03:45 | 11,7 | 10,7 | 94 | 0,4 | 1,3 | 90 | 0,00 | 994,2 | 0,0 | 0 |
| 03:50 | 11,7 | 10,7 | 94 | 0,4 | 2,2 | 90 | 0,25 | 994,2 | 0,0 | 0 |
| 03:55 | 11,6 | 10,7 | 94 | 0,9 | 2,2 | 90 | 0,25 | 994,2 | 0,0 | 0 |
| 04:00 | 11,6 | 10,7 | 94 | 0,4 | 2,7 | 90 | 0,00 | 994,2 | 0,0 | 0 |
| 04:05 | 11,6 | 10,6 | 94 | 0,9 | 2,2 | 90 | 0,00 | 994,2 | 0,0 | 0 |
| 04:10 | 11,6 | 10,6 | 94 | 0,9 | 1,8 | 68 | 0,00 | 994,2 | 0,0 | 0 |
| 04:15 | 11,6 | 10,7 | 94 | 1,3 | 2,2 | 45 | 0,25 | 994,2 | 0,0 | 0 |
| 04:20 | 11,6 | 10,7 | 94 | 0,9 | 2,2 | 45 | 0,00 | 994,2 | 0,0 | 0 |
| 04:25 | 11,6 | 10,7 | 94 | 0,9 | 2,2 | 45 | 0,00 | 994,2 | 0,0 | 0 |
| 04:30 | 11,7 | 10,7 | 94 | 0,9 | 2,2 | 45 | 0,00 | 994,2 | 0,0 | 0 |
| 04:35 | 11,7 | 10,7 | 94 | 0,9 | 2,2 | 45 | 0,00 | 994,2 | 0,0 | 0 |
| 04:40 | 11,7 | 10,7 | 94 | 1,3 | 2,7 | 45 | 0,00 | 994,2 | 0,0 | 0 |
| 04:45 | 11,7 | 10,7 | 94 | 0,4 | 1,8 | 45 | 0,00 | 994,2 | 0,0 | 0 |
| 04:50 | 11,7 | 10,7 | 94 | 0,9 | 1,8 | 45 | 0,25 | 994,2 | 0,0 | 0 |
| 04:55 | 11,7 | 10,7 | 94 | 1,3 | 2,7 | 23 | 0,00 | 994,2 | 0,0 | 0 |
| 05:00 | 11,7 | 10,7 | 94 | 1,3 | 2,7 | 23 | 0,00 | 994,2 | 0,0 | 0 |
| 05:05 | 11,6 | 10,7 | 94 | 1,8 | 2,7 | 23 | 0,00 | 994,2 | 0,0 | 0 |
| 05:10 | 11,6 | 10,7 | 94 | 1,3 | 2,7 | 23 | 0,00 | 994,2 | 0,0 | 0 |
| 05:15 | 11,6 | 10,7 | 94 | 1,8 | 3,6 | 45 | 0,00 | 994,3 | 0,0 | 0 |
| 05:20 | 11,6 | 10,7 | 94 | 1,8 | 3,1 | 45 | 0,00 | 994,3 | 0,0 | 0 |
| 05:25 | 11,6 | 10,5 | 93 | 1,3 | 3,1 | 45 | 0,00 | 994,3 | 0,0 | 0 |
| 05:30 | 11,6 | 10,5 | 93 | 0,9 | 2,7 | 0 | 0,00 | 994,5 | 0,0 | 0 |
| 05:35 | 11,6 | 10,5 | 93 | 1,8 | 3,1 | 23 | 0,00 | 994,5 | 0,0 | 0 |
| 05:40 | 11,6 | 10,5 | 93 | 1,8 | 2,7 | 23 | 0,00 | 994,5 | 0,0 | 0 |
| 05:45 | 11,6 | 10,5 | 93 | 1,3 | 2,7 | 23 | 0,00 | 994,7 | 0,0 | 0 |
| 05:50 | 11,6 | 10,5 | 93 | 1,3 | 2,2 | 23 | 0,00 | 994,7 | 0,0 | 0 |
| 05:55 | 11,5 | 10,4 | 93 | 1,3 | 2,7 | 23 | 0,00 | 994,7 | 0,0 | 0 |
| 06:00 | 11,4 | 10,4 | 93 | 1,3 | 2,2 | 0 | 0,00 | 994,7 | 0,0 | 0 |
| 06:05 | 11,4 | 10,4 | 93 | 1,3 | 2,2 | 0 | 0,00 | 994,7 | 0,0 | 0 |
| 06:10 | 11,4 | 10,4 | 93 | 0,9 | 2,2 | 0 | 0,00 | 994,7 | 0,0 | 0 |
| 06:15 | 11,4 | 10,4 | 93 | 1,3 | 2,2 | 23 | 0,00 | 994,8 | 0,0 | 0 |
| 06:20 | 11,4 | 10,1 | 92 | 1,3 | 2,2 | 23 | 0,00 | 994,8 | 0,0 | 0 |
| 06:25 | 11,4 | 10,1 | 92 | 1,3 | 2,2 | 23 | 0,00 | 994,8 | 0,0 | 0 |
| 06:30 | 11,4 | 10,1 | 92 | 0,9 | 1,8 | 23 | 0,00 | 995,2 | 0,0 | 0 |
| 06:35 | 11,3 | 10,1 | 92 | 0,0 | 0,9 | – | 0,00 | 995,2 | 0,0 | 0 |
| 06:40 | 11,4 | 10,1 | 92 | 0,0 | 0,0 | – | 0,00 | 995,2 | 0,0 | 0 |
| 06:45 | 11,5 | 10,2 | 92 | 0,0 | 0,0 | – | 0,00 | 995,2 | 0,0 | 0 |
| 06:50 | 11,4 | 10,1 | 92 | 0,0 | 0,0 | – | 0,00 | 995,2 | 0,0 | 0 |
| 06:55 | 11,2 | 10,0 | 92 | 0,0 | 0,0 | – | 0,00 | 995,2 | 0,0 | 0 |
| 07:00 | 11,1 | 10,0 | 93 | 0,0 | 0,0 | – | 0,00 | 995,4 | 0,0 | 0 |
| 07:05 | 10,9 | 9,8 | 93 | 0,0 | 0,0 | – | 0,00 | 995,4 | 0,0 | 0 |
| 07:10 | 10,9 | 9,8 | 93 | 0,0 | 0,0 | – | 0,00 | 995,4 | 0,0 | 4 |
| 07:15 | 11,0 | 9,9 | 93 | 0,0 | 0,0 | – | 0,00 | 995,7 | 0,0 | 5 |
| 07:20 | 11,0 | 9,9 | 93 | 0,0 | 0,0 | – | 0,00 | 995,7 | 0,0 | 5 |
| 07:25 | 10,9 | 10,0 | 94 | 0,0 | 0,0 | – | 0,00 | 995,7 | 0,0 | 7 |
| 07:30 | 10,9 | 10,0 | 94 | 0,0 | 0,0 | – | 0,00 | 995,8 | 0,0 | 8 |
| 07:35 | 10,9 | 10,0 | 94 | 0,0 | 0,0 | – | 0,00 | 995,8 | 0,0 | 9 |
| 07:40 | 10,9 | 10,0 | 94 | 0,0 | 0,0 | – | 0,00 | 995,8 | 0,0 | 11 |
| 07:45 | 10,9 | 10,0 | 94 | 0,0 | 0,0 | – | 0,00 | 996,2 | 0,0 | 14 |
| 07:50 | 10,9 | 10,2 | 95 | 0,0 | 0,0 | – | 0,00 | 996,2 | 0,0 | 22 |
| 07:55 | 11,0 | 10,2 | 95 | 0,0 | 0,0 | – | 0,00 | 996,2 | 0,0 | 31 |
| 08:00 | 11,0 | 10,2 | 95 | 0,0 | 0,0 | – | 0,00 | 996,3 | 0,0 | 39 |
| 08:05 | 11,2 | 10,4 | 95 | 0,0 | 0,0 | – | 0,00 | 996,3 | 0,0 | 47 |
| 08:10 | 11,2 | 10,4 | 95 | 0,0 | 0,0 | – | 0,00 | 996,3 | 0,0 | 54 |
| 08:15 | 11,2 | 10,4 | 95 | 0,0 | 0,0 | – | 0,00 | 996,4 | 0,5 | 56 |
| 08:20 | 11,2 | 10,5 | 95 | 0,0 | 0,0 | – | 0,00 | 996,4 | 0,0 | 54 |
| 08:25 | 11,3 | 10,5 | 95 | 0,0 | 0,0 | – | 0,00 | 996,4 | 0,1 | 55 |
| 08:30 | 11,4 | 10,6 | 95 | 0,0 | 0,0 | – | 0,00 | 996,8 | 0,5 | 63 |
| 08:35 | 11,4 | 10,7 | 95 | 0,0 | 0,0 | – | 0,00 | 996,8 | 0,5 | 73 |
| 08:40 | 11,6 | 10,8 | 95 | 0,0 | 0,0 | – | 0,00 | 996,8 | 0,6 | 80 |
| 08:45 | 11,7 | 10,9 | 95 | 0,0 | 0,0 | – | 0,00 | 997,0 | 0,6 | 88 |
| 08:50 | 11,8 | 11,1 | 95 | 0,0 | 0,0 | – | 0,00 | 997,0 | 0,6 | 93 |
| 08:55 | 11,8 | 11,1 | 95 | 0,0 | 0,0 | – | 0,00 | 997,0 | 0,6 | 93 |
| 09:00 | 11,9 | 11,2 | 95 | 0,0 | 0,0 | – | 0,00 | 997,3 | 0,7 | 153 |
| 09:05 | 12,1 | 11,3 | 95 | 0,0 | 0,0 | – | 0,00 | 997,3 | 0,7 | 175 |
| 09:10 | 12,3 | 11,7 | 96 | 0,0 | 0,0 | – | 0,00 | 997,3 | 0,8 | 272 |
| 09:15 | 12,8 | 12,0 | 95 | 0,0 | 0,0 | – | 0,00 | 997,4 | 0,9 | 285 |
| 09:20 | 12,7 | 11,7 | 94 | 0,0 | 0,9 | – | 0,00 | 997,4 | 0,9 | 280 |
| 09:25 | 12,7 | 11,8 | 94 | 0,0 | 0,9 | – | 0,00 | 997,4 | 1,0 | 310 |
| 09:30 | 12,9 | 11,9 | 94 | 0,0 | 0,9 | – | 0,00 | 997,8 | 1,0 | 275 |
| 09:35 | 12,9 | 12,2 | 95 | 0,0 | 0,0 | – | 0,00 | 997,8 | 0,9 | 191 |
| 09:40 | 13,3 | 12,3 | 94 | 0,0 | 0,0 | – | 0,00 | 997,8 | 1,0 | 216 |
| 09:45 | 13,6 | 12,6 | 94 | 0,4 | 1,3 | 0 | 0,00 | 998,1 | 1,0 | 218 |
| 09:50 | 13,8 | 12,5 | 92 | 0,4 | 1,3 | 0 | 0,00 | 998,1 | 1,1 | 274 |
| 09:55 | 14,0 | 12,7 | 92 | 0,4 | 1,8 | 0 | 0,00 | 998,1 | 1,2 | 364 |
| 10:00 | 14,7 | 13,0 | 90 | 0,0 | 1,8 | – | 0,00 | 998,3 | 1,2 | 397 |
| 10:05 | 14,8 | 13,2 | 90 | 0,0 | 1,3 | – | 0,00 | 998,3 | 1,3 | 403 |
| 10:10 | 14,9 | 12,9 | 88 | 0,4 | 1,8 | 293 | 0,00 | 998,3 | 1,4 | 413 |
| 10:15 | 15,2 | 12,8 | 86 | 0,4 | 1,8 | 293 | 0,00 | 998,5 | 1,3 | 339 |
| 10:20 | 15,2 | 12,7 | 85 | 0,0 | 0,9 | – | 0,00 | 998,5 | 1,3 | 245 |
| 10:25 | 15,1 | 12,6 | 85 | 0,4 | 1,8 | 293 | 0,00 | 998,5 | 1,3 | 154 |
| 10:30 | 15,4 | 12,7 | 84 | 0,0 | 0,9 | – | 0,00 | 998,8 | 1,5 | 356 |
| 10:35 | 15,9 | 12,4 | 80 | 0,9 | 2,2 | 293 | 0,00 | 998,8 | 1,5 | 362 |
| 10:40 | 15,8 | 12,3 | 80 | 0,4 | 2,7 | 293 | 0,00 | 998,8 | 1,4 | 268 |
| 10:45 | 15,7 | 12,6 | 82 | 0,4 | 1,8 | 293 | 0,00 | 998,9 | 1,5 | 364 |
| 10:50 | 15,9 | 12,5 | 80 | 0,4 | 1,3 | 293 | 0,00 | 998,9 | 1,5 | 495 |
| 10:55 | 16,2 | 12,8 | 80 | 0,4 | 2,7 | 293 | 0,00 | 998,9 | 1,2 | 267 |
| 11:00 | 16,1 | 12,8 | 81 | 0,4 | 1,8 | 315 | 0,00 | 999,1 | 1,1 | 147 |
| 11:05 | 15,7 | 12,5 | 81 | 0,4 | 2,2 | 315 | 0,00 | 999,1 | 1,2 | 137 |
| 11:10 | 15,1 | 11,9 | 81 | 0,9 | 2,2 | 293 | 0,00 | 999,1 | 1,3 | 131 |
| 11:15 | 15,1 | 12,1 | 82 | 0,4 | 1,8 | 293 | 0,00 | 999,4 | 1,3 | 125 |
| 11:20 | 14,8 | 12,0 | 83 | 0,4 | 1,8 | 293 | 0,00 | 999,4 | 1,4 | 117 |
| 11:25 | 14,6 | 12,1 | 85 | 0,4 | 1,8 | 293 | 0,00 | 999,4 | 1,5 | 134 |
| 11:30 | 14,8 | 12,1 | 84 | 0,4 | 1,8 | 293 | 0,00 | 999,6 | 2,1 | 504 |
| 11:35 | 15,5 | 12,6 | 83 | 0,4 | 1,8 | 293 | 0,00 | 999,6 | 1,9 | 480 |
| 11:40 | 16,0 | 12,5 | 80 | 0,4 | 1,8 | 293 | 0,00 | 999,6 | 2,0 | 504 |
| 11:45 | 16,2 | 12,4 | 78 | 0,9 | 2,2 | 270 | 0,00 | 999,9 | 1,5 | 269 |
| 11:50 | 15,9 | 12,3 | 79 | 0,9 | 2,2 | 270 | 0,00 | 999,9 | 1,5 | 251 |
| 11:55 | 15,6 | 12,2 | 80 | 1,8 | 4,0 | 248 | 0,00 | 999,9 | 1,6 | 252 |
| 12:00 | 15,4 | 12,4 | 82 | 1,3 | 3,6 | 270 | 0,00 | 1 000,3 | 1,6 | 226 |
| 12:05 | 15,3 | 12,5 | 83 | 0,9 | 3,1 | 270 | 0,00 | 1 000,3 | 1,6 | 216 |
| 12:10 | 15,3 | 12,6 | 84 | 0,9 | 1,8 | 270 | 0,00 | 1 000,3 | 1,7 | 229 |
| 12:15 | 15,6 | 12,7 | 83 | 0,4 | 1,8 | 293 | 0,00 | 1 000,4 | 1,8 | 223 |
| 12:20 | 15,4 | 12,8 | 84 | 0,9 | 2,2 | 270 | 0,00 | 1 000,4 | 1,8 | 189 |
| 12:25 | 15,2 | 12,4 | 83 | 0,4 | 1,8 | 270 | 0,00 | 1 000,4 | 1,9 | 263 |
| 12:30 | 15,6 | 12,3 | 81 | 0,4 | 1,3 | 270 | 0,00 | 1 000,8 | 2,5 | 587 |
| 12:35 | 16,3 | 12,4 | 78 | 1,3 | 4,0 | 270 | 0,00 | 1 000,8 | 2,5 | 665 |
| 12:40 | 16,4 | 12,3 | 77 | 1,3 | 3,1 | 270 | 0,00 | 1 000,8 | 2,6 | 544 |
| 12:45 | 16,7 | 12,4 | 76 | 0,9 | 2,7 | 293 | 0,00 | 1 001,0 | 2,8 | 641 |
| 12:50 | 16,9 | 12,5 | 75 | 0,9 | 2,7 | 293 | 0,00 | 1 001,0 | 2,6 | 597 |
| 12:55 | 17,1 | 12,6 | 75 | 1,3 | 4,0 | 248 | 0,00 | 1 001,0 | 2,7 | 604 |